Location: *
(40.7873°S, 98.7174°E)
Time: 11:36:00
(UTC+00:00)

Kosmos-1816 - Pass Details

Date: 27 June 2024
Orbit: 959 x 1007 km, 82.9° (Epoch: 23 July)

Event Time Altitude Azimuth Distance (km) Brightness Sun altitude
Rises 13:14:02 0° 204° (SSW) 3,751 9.3 -34.6°
Reaches altitude 10° 13:17:31 10° 223° (SW) 2,784 8.8 -35.2°
Maximum altitude 13:21:24 17° 261° (W) 2,287 8.6 -36.0°
Drops below altitude 10° 13:25:14 10° 299° (WNW) 2,744 9.0 -36.7°
Sets 13:28:39 0° 318° (NW) 3,672 9.5 -37.4°
